Volver al catálogo

ICEYE-X78

ActivoCienciaSSO
NORAD 68995·PAYLOAD·🇸🇬 Singapore

Lanzado May 3, 2026 desde Vandenberg Space Force Base

Loading…

Próximos Pases (próximas 24 horas)

TLE

ActualizadoSource: Space-Track

Época: Sep 14, 2026, 03:33 UTC

1 68995U 26100R   26257.14846616  .00000595  00000-0  64330-4 0  9993
2 68995  97.7240 152.9022 0002451 154.5766 205.5574 14.91895719 19962

Sigue ICEYE-X78 en tiempo real con AllMySat

Download on the App Store